This is the latest recevied weather packets stored in our database for station/object K7AEL. If no packets are shown the sender has not sent any weather packets the latest 10 day(s).
| Time | Temp. | Humidity | Pressure | Rain* | Wind** | Luminosity | Snow |
|---|---|---|---|---|---|---|---|
| 1777775209 | 28.89° C | 22% | 1011.7 hPa | 0 mm | - | 0 W/m² | - |
| 1777774909 | 28.89° C | 22% | 1011.6 hPa | 0 mm | - | 0 W/m² | - |
| 1777774606 | 28.89° C | 22% | 1011.4 hPa | 0 mm | - | 1 W/m² | - |
| 1777774302 | 28.89° C | 21% | 1011.7 hPa | 0 mm | - | 1 W/m² | - |
| 1777774000 | 28.89° C | 21% | 1011.8 hPa | 0 mm | - | 3 W/m² | - |
| 1777773697 | 29.44° C | 21% | 1011.4 hPa | 0 mm | - | 5 W/m² | - |
| 1777773394 | 29.44° C | 21% | 1011.7 hPa | 0 mm | - | 9 W/m² | - |
| 1777773091 | 29.44° C | 21% | 1011.7 hPa | 0 mm | - | 13 W/m² | - |
| 1777772787 | 29.44° C | 21% | 1011.7 hPa | 0 mm | - | 17 W/m² | - |
| 1777772485 | 30° C | 21% | 1011.6 hPa | 0 mm | - | 21 W/m² | - |
| 1777772182 | 30° C | 20% | 1011.7 hPa | 0 mm | - | 25 W/m² | - |
| 1777771880 | 30° C | 20% | 1011.8 hPa | 0 mm | - | 30 W/m² | - |
| 1777771577 | 30° C | 20% | 1011.8 hPa | 0 mm | - | 25 W/m² | - |
| 1777771273 | 29.44° C | 20% | 1011.8 hPa | 0 mm | - | 31 W/m² | - |
| 1777770970 | 30° C | 20% | 1012 hPa | 0 mm | - | 37 W/m² | - |
| 1777770667 | 30° C | 20% | 1011.7 hPa | 0 mm | - | 44 W/m² | - |
| 1777770363 | 30° C | 20% | 1012 hPa | 0 mm | - | 52 W/m² | - |
| 1777770061 | 30° C | 20% | 1011.9 hPa | 0 mm | - | 60 W/m² | - |
| 1777769757 | 30° C | 20% | 1012.1 hPa | 0 mm | - | 70 W/m² | - |
| 1777769455 | 30° C | 19% | 1012 hPa | 0 mm | - | 77 W/m² | - |
| 1777769150 | 30.56° C | 19% | 1011.8 hPa | 0 mm | - | 75 W/m² | - |
| 1777768849 | 30.56° C | 19% | 1012 hPa | 0 mm | - | 69 W/m² | - |
| 1777768545 | 30.56° C | 18% | 1011.8 hPa | 0 mm | - | 68 W/m² | - |
| 1777768243 | 31.11° C | 17% | 1011.8 hPa | 0 mm | - | 109 W/m² | - |
| 1777767940 | 31.11° C | 17% | 1011.8 hPa | 0 mm | - | 119 W/m² | - |
* Rain latest hour (hover to see other rain measurements)
** Current wind speed in m/s (hover to see current wind gust speed)